Weather History for Saint Simons Island, GA

Change the Weather History Date:

Tuesday, November 6, 2012

  Actual Average Record
Temperature  
Mean Temperature 58 °F 64 °F  
Max Temperature 68 °F 73 °F 84 °F (1959)
Min Temperature 48 °F 56 °F 34 °F (1976)
Degree Days  
Heating Degree Days 7 3  
Month to date heating degree days 15 17  
Since 1 July heating degree days 44 47  
Cooling Degree Days 0 2  
Month to date cooling degree days 11 17  
Year to date cooling degree days 2898 2578  
Growing Degree Days 9 (Base 50)    
Moisture  
Dew Point 51 °F    
Average Humidity 71    
Maximum Humidity 86    
Minimum Humidity 55    
Precipitation  
Precipitation 0.16 in 0.08 in 0.37 in (1948)
Month to date precipitation 0.16 0.45  
Year to date precipitation 39.29 40.78  
Snow  
Snow 0.00 in - 0.00 in ()
Month to date snowfall 0.0  
Since 1 July snowfall 0.0  
Since 1 September snowfall 0.0  
Snow Depth 0.00 in    
Sea Level Pressure  
Sea Level Pressure 29.91 in    
Wind  
Wind Speed 8 mph (NNE)    
Max Wind Speed 16 mph    
Max Gust Speed 20 mph    
Visibility 10 miles    
Events Rain    
T = Trace of Precipitation, MM = Missing Value Source: NWS Daily Summary

Daily Weather History Graph

Daily Weather History Graph

Search for Another Location

Airport:

Trip Planner

Search our weather history database for the weather conditions in past years. The results will help you decide how hot, cold, wet, or windy it might be!

Date:

Astronomy

Nov. 06, 2012 Rise Set
Actual Time 6:45 AM EST 5:32 PM EST
Civil Twilight 6:20 AM EST 5:57 PM EST
Nautical Twilight 5:51 AM EST 6:26 PM EST
Astronomical Twilight 5:22 AM EST 6:55 PM EST
Moon No Moon Rise 12:40 PM EST (11/6)
Length of Visible Light 11h 37m
Length of Day
10h 47m
Waning Gibbous, 53% of the Moon is Illuminated
Nov 6
Waning Gibbous
Nov 6
Last Quarter
Nov 13
New
Nov 20
First Quarter
Nov 28
Full

Hourly Weather History & Observations

Time (EST) Temp. Dew Point Humidity Pressure Visibility Wind Dir Wind Speed Gust Speed Precip Events Conditions
12:53 AM 61.0 °F 48.9 °F 64% 29.97 in 10.0 mi NE 5.8 mph - N/A   Clear
1:53 AM 62.1 °F 50.0 °F 65% 29.95 in 10.0 mi ENE 8.1 mph - N/A   Clear
2:53 AM 62.1 °F 51.1 °F 67% 29.94 in 10.0 mi NE 8.1 mph - N/A   Overcast
3:53 AM 62.1 °F 51.1 °F 67% 29.91 in 10.0 mi ENE 10.4 mph - N/A   Mostly Cloudy
4:53 AM 62.1 °F 51.1 °F 67% 29.94 in 10.0 mi NNE 6.9 mph - N/A   Overcast
5:53 AM 62.1 °F 52.0 °F 70% 29.97 in 10.0 mi North 5.8 mph - 0.00 in Rain Light Rain
6:53 AM 57.0 °F 54.0 °F 89% 30.00 in 8.0 mi West 4.6 mph - 0.12 in Rain Light Rain
7:53 AM 57.0 °F 54.0 °F 89% 29.96 in 8.0 mi ENE 5.8 mph - 0.01 in Rain Light Rain
8:53 AM 57.9 °F 55.0 °F 90% 29.91 in 10.0 mi East 6.9 mph - 0.03 in   Overcast
9:53 AM 62.1 °F 55.0 °F 78% 29.90 in 10.0 mi ESE 6.9 mph - 0.00 in   Overcast
10:53 AM 64.9 °F 53.1 °F 65% 29.90 in 10.0 mi SSW 4.6 mph - N/A   Mostly Cloudy
11:53 AM 66.0 °F 51.1 °F 59% 29.89 in 10.0 mi West 8.1 mph - N/A   Scattered Clouds
12:53 PM 66.9 °F 52.0 °F 59% 29.86 in 10.0 mi NW 5.8 mph - N/A   Partly Cloudy
1:53 PM 66.9 °F 52.0 °F 59% 29.84 in 10.0 mi NNW 5.8 mph - N/A   Overcast
2:53 PM 68.0 °F 51.1 °F 55% 29.84 in 10.0 mi NNW 8.1 mph - N/A   Partly Cloudy
3:53 PM 62.1 °F 54.0 °F 75% 29.85 in 10.0 mi ENE 9.2 mph - N/A   Overcast
4:13 PM 62.6 °F 55.4 °F 77% 29.85 in 10.0 mi NNE 13.8 mph 18.4 mph N/A   Overcast
4:53 PM 60.1 °F 55.0 °F 83% 29.86 in 10.0 mi NE 12.7 mph - N/A   Overcast
5:53 PM 57.9 °F 53.1 °F 84% 29.87 in 10.0 mi NE 9.2 mph - N/A   Scattered Clouds
6:48 PM 57.2 °F 51.8 °F 82% 29.89 in 10.0 mi NNE 9.2 mph - N/A   Overcast
6:53 PM 59.0 °F 51.1 °F 75% 29.90 in 10.0 mi NNE 10.4 mph - N/A   Overcast
7:53 PM 55.9 °F 48.9 °F 77% 29.91 in 10.0 mi North 11.5 mph - N/A   Mostly Cloudy
8:53 PM 54.0 °F 46.9 °F 77% 29.92 in 10.0 mi North 6.9 mph - N/A   Mostly Cloudy
9:53 PM 51.1 °F 45.0 °F 80% 29.92 in 10.0 mi NNW 8.1 mph - N/A   Partly Cloudy
10:53 PM 50.0 °F 43.0 °F 77% 29.91 in 10.0 mi NNW 9.2 mph - N/A   Mostly Cloudy
11:53 PM 48.9 °F 42.1 °F 77% 29.91 in 10.0 mi NNW 5.8 mph - N/A   Mostly Cloudy